EW1795 Weather Reports


time (UTC)temp
C
wind
direction
speed
KPH
gust
KPH
rain 1hr
cm
rain 24hr
cm
rain mn
cm
humidity
%
barometer
mb
20260502204550 16 2 11.3 29.0 0.00 0.00 0.00 35 1009.1
20260502203048 17 286 8.0 24.1 0.00 0.00 0.00 35 1009.2
20260502201545 17 259 4.8 20.9 0.00 0.00 0.00 34 1009.3
20260502200142 17 289 11.3 24.1 0.00 0.00 0.00 32 1009.4
20260502194549 17 250 11.3 29.0 0.00 0.00 0.00 33 1009.7
20260502193057 17 330 6.4 20.9 0.00 0.00 0.00 32 1009.8
20260502191548 17 259 3.2 17.7 0.00 0.00 0.00 34 1010.0
20260502190004 16 322 8.0 19.3 0.00 0.00 0.00 33 1010.5
20260502184501 16 264 8.0 22.5 0.00 0.00 0.00 33 1010.7
20260502183059 16 238 6.4 16.1 0.00 0.00 0.00 34 1010.8
20260502181557 15 283 4.8 19.3 0.00 0.00 0.00 34 1011.1
20260502180155 15 315 4.8 20.9 0.00 0.00 0.00 35 1011.4
20260502170150 14 143 8.0 29.0 0.00 0.00 0.00 36 1012.2
20260502163051 13 151 14.5 20.9 0.00 0.00 0.00 36 1012.8
20260502161611 13 165 9.7 20.9 0.00 0.00 0.00 36 1013.1
20260502160145 12 185 8.0 19.3 0.00 0.00 0.00 37 1013.3
20260502151544 11 168 6.4 17.7 0.00 0.00 0.00 38 1014.2
20260502150143 11 176 9.7 19.3 0.00 0.00 0.00 40 1014.6
20260502123126 3 187 0.0 4.8 0.00 0.00 0.00 66 1016.5
20260502121554 2 143 0.0 1.6 0.00 0.00 0.00 67 1016.6
20260502120151 1 166 0.0 1.6 0.00 0.00 0.00 70 1016.8
20260502114557 1 188 0.0 1.6 0.00 0.00 0.00 70 1017.0
20260502113051 1 187 0.0 3.2 0.00 0.00 0.00 70 1017.1
20260502111552 0 238 0.0 3.2 0.00 0.00 0.00 71 1017.1
20260502110148 0 155 0.0 1.6 0.00 0.00 0.00 69 1017.1
20260502104553 0 242 0.0 4.8 0.00 0.00 0.00 67 1017.2
20260502103049 0 195 0.0 3.2 0.00 0.00 0.00 68 1017.4
20260502101554 0 158 0.0 1.6 0.00 0.00 0.00 71 1017.5
20260502100143 0 158 0.0 3.2 0.00 0.00 0.00 73 1017.6
20260502070151 -1 158 0.0 0.0 0.00 0.00 0.00 81 1018.6
20260502064555 -1 158 0.0 0.0 0.00 0.00 0.00 79 1018.7
20260502063059 -1 158 0.0 0.0 0.00 0.00 0.00 78 1018.7
20260502061551 -1 158 0.0 0.0 0.00 0.00 0.00 75 1018.7
20260502060150 -1 36 0.0 0.0 0.00 0.00 0.00 81 1018.8
20260502054553 0 36 0.0 0.0 0.00 0.00 0.00 74 1018.8
20260502053050 0 36 0.0 0.0 0.00 0.00 0.00 76 1019.0
20260502051551 0 36 0.0 0.0 0.00 0.00 0.00 71 1019.2
20260502044546 0 36 0.0 0.0 0.00 0.00 0.00 73 1019.2
20260502043050 0 36 0.0 0.0 0.00 0.00 0.00 73 1019.2
20260502041548 0 36 0.0 0.0 0.00 0.00 0.00 67 1019.2
20260502040148 0 36 0.0 0.0 0.00 0.00 0.00 67 1019.3
20260502034541 1 36 0.0 0.0 0.00 0.00 0.00 64 1019.4
20260502033045 1 36 0.0 0.0 0.00 0.00 0.00 73 1019.4
20260502031540 1 36 0.0 0.0 0.00 0.00 0.00 64 1019.5
20260502030138 1 36 0.0 0.0 0.00 0.00 0.00 61 1019.6
20260502024611 3 36 0.0 0.0 0.00 0.00 0.00 58 1019.6
20260502023057 3 36 0.0 0.0 0.00 0.00 0.00 48 1019.6
20260502021605 5 36 0.0 0.0 0.00 0.00 0.00 47 1019.5
20260502020156 6 36 0.0 0.0 0.00 0.00 0.00 43 1019.5
20260502014555 7 36 0.0 1.6 0.00 0.00 0.00 41 1019.5
20260502013054 7 26 0.0 8.0 0.00 0.00 0.00 38 1019.4
20260502011554 8 39 1.6 9.7 0.00 0.00 0.00 36 1019.3
20260502010153 8 58 3.2 6.4 0.00 0.00 0.00 34 1019.2
20260502004600 9 36 8.0 12.9 0.00 0.00 0.00 34 1019.4
20260502003050 9 41 3.2 12.9 0.00 0.00 0.00 33 1019.5
20260502001549 9 48 9.7 17.7 0.00 0.00 0.00 32 1019.2
20260502000151 10 45 8.0 16.1 0.00 0.00 0.00 33 1019.4
20260501234548 10 331 12.9 22.5 0.00 0.00 0.00 31 1019.4
20260501233050 10 324 17.7 30.6 0.00 0.00 0.00 31 1019.3
20260501231547 10 338 9.7 22.5 0.00 0.00 0.00 31 1019.4
20260501230146 10 353 11.3 20.9 0.00 0.00 0.00 30 1019.2
20260501224550 10 342 9.7 27.4 0.00 0.00 0.00 30 1019.3
20260501223047 11 342 6.4 29.0 0.00 0.00 0.00 30 1019.3
20260501221544 10 25 6.4 24.1 0.00 0.00 0.00 30 1019.2
20260501220142 10 340 8.0 27.4 0.00 0.00 0.00 32 1019.3
20260501214702 10 7 8.0 27.4 0.00 0.00 0.00 32 1019.4
20260501213059 9 306 8.0 17.7 0.00 0.00 0.00 34 1019.5
20260501211607 10 325 11.3 29.0 0.00 0.00 0.00 31 1019.5
20260501210158 10 283 9.7 30.6 0.00 0.00 0.00 31 1019.5